Theta_e
298 299 299 300 299 298 298 297 297 296 298 298 296 296 298 299 292 289 296 298 296 298 300 303 304 305 306 306 307 308 310 310 311 312 312 312 313 314 314 315 316 316 316 316 317 316 316 316 316 317 315 315 316 316 316 316 317 317 319 318 318 318 318 319 319 321 322 322 322 322 322 323 323 323 323 323 323 323 323 323 324 323 324 324 325 326 328
297 298 298 299 298 298 298 297 298 299 298 298 299 299 300 299 298 299 298 299 299 301 302 303 305 306 306 307 308 309 309 309 309 310 311 311 312 312 313 314 315 316 316 316 316 317 317 315 315 315 315 314 315 315 315 316 316 318 318 318 317 317 317 317 319 319 319 320 320 321 321 321 321 322 321 321 321 321 321 322 322 322 322 323 321 320 322
295 297 298 298 298 297 296 298 299 299 299 299 299 300 300 301 300 300 300 299 298 303 305 305 306 307 307 307 306 306 308 308 309 310 310 311 311 312 313 314 315 315 316 316 316 316 316 315 315 315 314 314 314 314 315 315 315 317 316 316 316 316 316 317 318 318 319 319 320 319 320 321 321 320 320 321 321 320 320 320 320 320 320 320 318 315 314
292 297 296 297 297 297 296 296 298 298 297 296 298 296 301 299 297 299 298 296 297 302 305 306 306 306 306 305 306 307 307 309 310 310 310 310 311 312 312 314 314 315 315 315 315 315 315 315 315 314 314 313 313 313 314 314 315 316 316 315 315 315 316 317 317 317 317 318 317 317 318 317 317 317 318 318 319 319 319 318 319 319 318 317 315 313 312
290 296 296 296 296 295 290 292 297 299 299 300 301 301 302 302 302 294 292 294 300 302 305 304 304 305 305 306 306 307 308 309 309 309 310 310 311 312 313 313 314 314 315 315 316 316 315 314 314 314 314 313 313 313 313 315 316 315 314 315 315 315 315 315 316 317 317 316 315 316 316 315 316 316 316 316 317 318 318 318 318 317 316 314 312 311 310
290 295 295 296 291 283 286 301 302 300 298 299 298 298 301 303 304 299 302 301 303 304 304 303 303 304 305 307 309 311 310 309 310 310 311 312 313 314 314 314 314 315 315 315 316 316 316 315 315 315 315 314 314 315 314 315 315 314 313 314 314 314 314 314 315 315 315 314 314 314 314 314 314 315 314 315 316 317 318 317 316 315 316 312 311 310 309
290 294 294 288 282 285 298 302 304 303 302 301 299 300 301 302 303 304 303 303 303 304 304 305 306 307 308 310 310 311 312 312 311 311 311 312 313 313 314 314 314 315 315 315 315 315 315 315 316 315 313 314 315 314 314 314 314 314 314 313 314 314 314 314 315 314 314 313 314 313 313 312 313 313 314 315 314 315 316 315 315 315 314 311 309 309 308
293 290 289 281 284 297 300 301 304 306 302 302 301 299 301 302 302 303 303 304 305 305 305 306 308 308 310 310 311 312 313 314 313 312 312 314 314 314 315 315 315 315 315 315 315 315 316 315 314 314 314 314 314 313 314 313 313 313 314 313 312 313 313 314 313 314 313 313 313 312 313 312 312 313 314 313 313 314 314 315 316 314 312 310 308 307 307
287 289 288 288 296 295 297 297 301 301 297 300 298 290 296 303 304 304 303 304 304 305 306 307 308 309 308 306 306 310 311 313 315 315 315 316 316 317 317 317 317 318 318 317 317 316 315 315 314 314 314 314 313 312 312 312 312 313 313 312 311 312 313 313 313 313 313 311 312 312 311 311 311 313 313 311 312 314 313 315 314 312 310 308 307 308 307
291 288 287 287 287 284 290 299 304 306 306 305 304 300 295 304 305 306 305 304 304 305 306 307 307 310 303 300 302 309 311 313 314 315 317 318 318 318 318 318 318 319 319 317 316 316 315 315 315 314 314 313 312 312 312 312 311 311 312 311 311 312 312 312 313 313 312 311 311 312 311 311 310 311 312 312 312 313 313 313 312 310 309 308 308 307 306
290 288 286 285 283 286 297 299 303 306 306 305 306 298 292 302 305 305 305 304 305 305 305 307 308 303 297 299 302 308 312 313 315 315 316 317 318 318 317 317 317 316 317 317 316 316 316 314 315 316 315 314 312 311 312 311 312 311 311 311 311 311 312 312 312 312 312 312 311 311 311 312 312 310 310 311 311 313 314 314 311 309 309 307 307 306 306
290 289 287 285 289 288 296 302 303 305 306 306 301 287 288 302 305 306 306 305 305 306 307 308 306 301 297 299 305 311 316 316 317 317 316 317 317 317 317 317 318 317 317 316 315 315 314 315 316 316 316 314 313 312 311 311 311 311 311 311 311 311 312 314 312 311 311 311 311 312 311 311 311 311 311 311 311 311 312 312 311 310 308 307 306 305 306
290 288 289 290 290 297 302 302 305 305 307 301 289 285 291 304 306 307 307 306 306 307 307 307 302 305 307 308 311 315 314 314 316 318 319 318 317 316 316 315 313 316 316 316 315 315 315 315 316 316 315 313 312 312 312 311 310 311 312 312 312 311 313 313 314 311 310 310 312 312 312 311 311 311 311 311 311 312 311 311 311 309 307 307 306 306 306
289 290 288 289 292 299 304 306 306 306 300 288 288 300 308 306 306 308 308 308 308 309 307 306 306 307 310 313 312 311 312 314 316 316 318 318 317 317 316 315 315 317 315 315 315 315 315 315 316 316 315 313 312 311 311 310 311 312 312 311 312 311 312 312 312 312 310 310 312 312 311 311 310 310 311 312 312 312 311 310 308 307 306 306 307 306 307
293 291 288 287 284 295 306 307 304 305 292 296 303 306 308 308 308 308 308 308 309 309 307 308 308 308 311 312 312 312 312 313 313 315 316 316 316 315 317 317 316 316 315 314 313 315 315 316 317 316 315 312 312 312 311 312 312 311 311 312 311 312 312 311 311 311 312 310 311 310 310 311 310 311 311 312 312 312 311 308 306 305 305 306 306 305 305
289 288 286 287 295 302 309 305 296 302 304 308 309 307 305 309 309 308 307 308 309 310 308 307 308 309 308 310 312 312 312 313 315 315 317 317 316 316 316 316 316 316 316 315 315 317 316 317 316 315 314 312 312 311 311 312 312 312 312 311 311 311 312 311 311 310 311 311 311 311 311 310 310 311 311 311 311 311 310 307 304 303 303 304 304 303 303
293 291 295 301 304 307 309 307 306 308 310 311 313 311 308 307 307 311 309 308 311 311 310 309 309 308 309 309 311 311 312 313 313 314 314 316 317 317 316 316 318 317 316 316 316 317 316 316 315 314 314 313 312 311 312 311 311 311 311 311 311 311 311 311 310 310 310 311 310 311 311 310 309 309 311 311 310 310 309 306 303 301 301 303 303 302 302
302 304 305 309 307 308 308 309 310 310 311 311 312 310 308 310 311 312 310 312 312 313 312 309 309 309 309 310 311 311 312 314 314 315 316 316 318 317 317 317 317 316 316 317 317 316 315 316 315 315 315 314 313 311 311 311 311 310 311 310 310 310 310 309 309 309 309 310 310 310 310 310 310 309 309 310 309 310 308 306 305 303 303 303 303 303 301
298 292 303 303 304 307 309 308 310 311 312 311 311 311 311 311 312 312 314 313 313 313 313 312 310 309 310 310 311 312 311 313 315 315 315 316 316 317 316 318 316 316 316 315 315 315 314 315 315 315 315 314 313 311 311 311 311 311 311 310 310 310 309 309 310 310 310 309 309 309 310 310 310 310 309 309 310 309 308 307 305 304 305 306 306 305 302
297 295 302 305 307 308 310 309 308 308 310 310 311 312 313 312 313 313 313 314 313 314 312 312 312 311 312 312 310 311 311 312 313 314 315 316 316 317 317 318 316 315 315 314 314 314 314 315 315 315 314 313 311 312 312 312 311 311 310 310 310 309 310 309 310 309 309 303 306 308 309 310 310 309 309 308 307 309 309 309 307 306 307 306 306 306 303
300 303 304 305 306 307 308 309 309 310 311 311 311 311 312 312 312 313 314 314 313 313 313 314 313 312 312 313 312 311 311 313 314 314 314 315 316 317 317 317 315 314 314 313 314 314 314 315 315 314 314 313 312 313 313 312 311 310 310 308 309 309 309 308 308 309 309 309 308 308 309 310 310 310 308 308 307 309 312 312 311 310 309 308 307 308 304
294 296 299 302 295 295 305 307 309 310 312 311 311 311 311 312 312 312 311 312 315 314 313 313 313 313 312 313 314 312 312 313 314 315 315 315 316 316 318 318 316 316 315 315 314 312 312 313 314 314 314 313 314 315 312 312 312 311 311 310 309 307 307 307 308 308 309 308 308 308 308 308 309 310 293 292 302 308 309 299 292 292 296 309 312 309 305
294 302 303 306 306 304 310 308 312 312 313 312 311 311 311 311 312 312 312 311 311 312 315 314 312 313 313 314 316 314 313 315 316 315 316 315 315 315 316 316 315 315 315 314 314 311 311 313 314 313 314 313 314 313 312 312 311 311 311 309 307 306 306 305 303 307 307 309 309 309 309 308 308 305 306 305 289 287 293 298 296 294 292 291 294 296 305
303 306 307 308 307 305 307 309 309 310 314 312 311 312 312 312 311 311 312 312 311 311 312 314 314 313 314 315 316 315 314 316 316 315 317 316 316 316 316 315 315 315 315 315 314 312 312 314 313 313 313 313 314 313 313 312 311 311 310 309 307 306 306 305 304 306 308 309 309 309 308 308 308 304 304 301 301 294 290 293 292 292 292 291 292 296 294
303 308 307 308 308 309 310 310 310 311 312 312 310 311 311 311 311 312 311 311 313 312 312 312 313 315 314 314 316 315 314 316 316 314 314 313 313 314 315 315 315 315 315 315 314 314 314 314 313 313 313 313 314 313 313 312 311 311 310 310 309 308 307 306 305 304 306 309 308 309 309 308 309 306 304 301 300 300 302 291 290 291 292 292 292 293 293
308 308 308 308 308 307 309 310 309 310 310 312 312 311 311 312 312 312 311 311 312 314 313 313 313 314 315 314 314 316 315 316 313 312 314 314 313 313 314 314 315 315 315 314 313 313 314 315 314 313 312 313 313 314 313 312 311 311 310 310 310 308 307 306 306 305 306 309 308 308 308 307 308 307 304 304 302 300 299 301 302 298 293 291 291 292 292
309 309 305 301 302 305 308 307 306 310 310 313 312 311 312 312 312 313 313 313 313 313 313 314 314 314 315 315 313 315 315 316 314 312 313 313 313 313 315 315 315 315 315 314 314 312 310 314 313 313 312 313 314 314 312 312 312 311 311 311 310 302 295 300 307 306 306 308 308 307 308 307 306 306 307 305 305 301 300 299 299 298 299 301 295 292 299
307 308 307 301 301 303 305 308 310 311 311 310 310 309 310 311 312 311 311 311 311 312 315 316 314 314 313 314 314 314 313 314 313 312 312 313 314 315 315 316 316 315 315 314 314 314 313 314 313 312 312 314 314 313 312 312 312 311 310 311 310 309 308 305 306 306 306 308 308 308 308 307 308 306 305 305 304 302 300 297 301 300 300 302 303 296 292
304 305 306 306 306 306 307 306 305 306 307 310 310 310 310 310 310 310 309 310 311 311 311 312 315 314 313 314 314 313 313 313 313 313 313 314 315 315 316 316 316 315 314 313 313 314 313 312 312 311 312 314 314 313 312 312 312 311 310 310 310 309 308 307 307 307 307 308 308 308 302 307 303 308 307 308 307 307 305 303 303 302 304 304 305 305 297
303 304 305 305 306 307 306 305 303 305 305 307 308 308 309 309 308 308 309 309 310 309 311 312 313 314 314 313 314 314 313 313 314 315 315 315 315 316 316 315 315 314 314 313 312 313 313 312 311 311 312 315 314 313 312 312 311 311 311 311 311 309 309 309 308 308 308 307 306 299 306 307 308 307 305 307 307 304 306 304 303 303 304 304 301 303 301
304 305 306 306 305 306 304 303 304 305 307 308 308 308 309 309 308 308 309 309 309 309 310 311 312 313 314 313 314 315 315 315 316 316 316 316 316 316 315 314 312 310 311 311 312 313 313 312 312 311 313 315 314 313 312 312 311 311 311 311 311 302 297 296 298 308 307 307 306 307 306 307 306 305 303 305 305 305 305 305 303 303 303 305 305 304 303
303 303 304 304 304 304 304 304 304 305 306 308 308 307 308 308 307 308 308 308 310 310 311 311 311 312 313 314 315 315 315 315 315 316 317 317 316 316 315 314 313 307 313 313 313 313 313 312 312 313 313 314 314 313 313 312 311 310 310 304 309 311 302 294 301 304 305 308 307 306 303 304 305 305 304 305 305 305 305 305 304 303 303 305 304 305 305
302 301 302 302 302 302 303 305 305 305 306 307 307 309 309 309 309 309 309 310 310 310 310 311 312 313 314 314 315 314 314 314 314 315 315 316 315 316 315 315 314 314 314 314 314 314 314 312 312 314 313 314 314 314 314 314 312 310 310 310 310 309 302 298 300 305 302 306 305 306 306 305 305 305 305 304 305 303 305 304 305 303 302 304 305 306 306
303 302 303 304 304 304 304 305 307 307 308 309 309 309 309 309 310 310 310 310 310 310 310 311 313 314 314 314 314 313 313 312 311 311 313 314 315 316 315 313 314 314 315 315 315 315 315 314 314 314 313 314 314 314 314 314 313 311 311 311 310 309 308 306 300 306 305 304 305 304 305 307 306 306 306 303 304 306 304 304 303 304 303 303 305 306 301
307 306 307 307 307 308 308 307 307 307 308 307 308 309 310 311 310 310 309 310 310 311 312 313 312 313 313 314 313 313 312 312 312 313 314 314 315 316 316 314 314 314 314 315 315 314 315 315 315 314 314 314 314 315 315 314 313 311 312 312 311 311 310 306 307 305 305 306 306 307 305 306 305 300 302 304 304 303 304 305 304 303 303 303 304 306 304
308 307 307 307 308 308 308 308 308 308 308 308 309 309 309 310 311 311 310 311 312 312 311 311 312 312 312 313 312 312 312 313 313 314 315 315 316 317 315 313 313 313 313 313 315 316 316 315 301 300 314 314 314 315 315 315 314 313 313 312 310 310 308 308 307 306 305 307 306 306 306 302 302 305 303 304 304 304 304 304 305 304 304 304 303 304 306
307 306 306 307 308 308 309 308 309 309 309 309 309 309 310 310 310 311 311 311 312 312 312 312 312 311 312 313 313 313 313 313 313 314 315 316 317 316 315 314 313 313 312 312 314 316 315 315 300 292 307 314 314 315 316 297 314 313 313 313 313 310 309 309 309 308 307 307 306 306 304 305 305 306 303 305 305 303 303 304 305 304 304 304 304 303 303
306 306 306 306 307 308 308 309 309 309 309 309 309 308 309 310 310 311 311 312 312 313 313 313 312 312 313 313 313 312 313 314 314 314 315 315 316 315 314 313 312 312 310 311 316 316 316 309 292 302 314 313 313 314 311 293 299 312 313 313 311 310 309 309 308 307 307 308 305 308 307 306 306 306 305 305 305 305 303 303 304 304 304 304 304 305 305
305 306 307 307 308 308 308 308 309 309 309 308 309 309 309 310 310 311 310 310 311 311 312 312 312 312 312 311 311 312 313 314 314 314 315 314 315 314 313 313 313 314 313 315 317 317 315 308 311 313 313 314 314 315 306 292 293 312 313 313 313 311 309 309 309 307 307 310 308 307 308 307 306 306 306 306 305 304 301 303 302 301 304 305 305 305 305
304 305 305 306 306 307 307 308 308 308 309 309 309 309 310 309 310 310 310 311 312 310 311 311 311 310 311 311 311 311 313 314 314 314 314 314 314 314 314 314 315 317 316 304 315 316 308 297 307 314 313 314 315 314 312 298 297 308 312 312 312 311 310 309 309 309 309 309 308 300 308 306 306 307 305 306 306 304 306 304 302 302 303 304 305 305 305
304 305 305 305 306 306 306 306 306 307 308 308 309 310 311 310 310 310 310 310 311 312 312 312 311 310 311 311 312 312 314 313 314 314 315 314 313 312 311 311 315 317 317 317 316 315 304 302 311 314 315 314 315 304 314 296 304 311 312 312 311 311 311 310 309 309 309 308 306 308 308 309 306 306 307 306 305 306 305 305 304 302 303 304 305 306 305
304 305 305 305 305 306 306 306 307 307 307 309 309 310 311 311 310 310 310 311 312 312 312 312 303 311 312 312 313 312 314 314 315 315 315 313 312 312 311 312 316 316 307 309 308 309 310 311 311 304 315 314 312 300 299 303 309 311 311 311 312 310 310 311 309 309 309 309 310 310 308 308 309 308 306 307 306 306 306 306 305 304 304 303 304 305 306
304 304 305 305 305 306 306 306 306 307 307 308 309 310 310 311 311 311 311 311 311 311 311 312 310 306 308 311 312 312 313 314 315 315 314 315 315 316 314 315 317 317 296 309 313 315 314 314 313 313 305 310 310 295 294 310 312 311 311 311 309 311 310 310 310 309 310 310 311 311 310 310 309 309 308 308 307 307 306 307 306 305 303 304 305 305 305
304 305 305 305 305 305 306 306 306 306 306 307 309 310 311 311 311 311 311 311 311 311 311 311 312 312 311 311 310 311 311 313 313 314 313 313 313 315 316 315 316 309 294 309 312 313 313 313 314 307 295 295 296 293 306 313 312 311 312 310 310 310 310 311 311 311 310 310 309 311 311 307 310 310 310 309 308 309 307 307 308 307 305 304 304 304 305
304 305 306 306 307 306 306 305 306 306 307 308 308 309 310 310 311 311 311 311 310 311 309 311 311 311 312 312 311 312 312 313 314 314 312 310 310 312 315 304 313 312 304 300 313 312 314 315 308 296 295 293 292 291 311 312 312 311 311 310 311 310 310 310 310 311 310 310 309 310 311 310 310 309 310 310 306 308 308 307 308 308 307 305 304 304 304
305 305 306 299 306 306 307 307 308 308 308 307 308 308 308 310 311 312 312 312 312 312 313 313 312 312 313 313 313 313 314 314 315 316 315 315 313 314 317 306 314 305 300 296 312 313 314 299 296 293 292 292 291 301 311 311 310 312 311 311 311 309 310 310 310 310 310 310 310 310 310 311 311 311 311 311 311 310 308 305 305 308 308 307 306 305 305
304 305 306 307 307 308 308 308 308 308 308 307 306 307 307 310 310 311 311 312 313 313 313 314 313 313 314 314 313 312 312 312 313 315 316 316 314 312 310 303 301 298 298 309 312 313 313 311 297 292 291 290 291 308 310 312 312 313 312 312 312 311 310 312 311 311 311 311 309 307 303 309 310 311 309 307 310 309 309 308 308 309 308 308 306 306 303
304 304 305 306 307 308 308 308 308 308 308 307 308 309 309 310 310 311 312 312 312 313 313 314 313 314 314 314 314 314 314 313 311 313 316 315 317 316 315 316 312 298 298 297 299 300 296 296 295 291 290 289 298 308 310 311 312 312 312 312 312 312 312 312 312 312 311 310 309 310 310 310 310 311 310 310 311 310 310 309 308 308 309 308 308 308 308
304 304 305 306 307 308 308 308 308 308 309 309 308 309 310 310 311 311 311 312 312 313 313 313 313 314 314 311 312 315 314 314 314 313 316 317 316 316 316 308 298 292 303 310 311 310 299 292 291 290 289 290 306 309 310 311 310 309 312 312 312 312 312 313 313 312 312 311 310 309 310 310 311 311 311 310 310 310 309 309 310 310 310 309 309 310 307
304 304 304 305 306 307 308 308 307 308 310 310 310 311 312 311 309 310 309 311 311 308 312 313 314 315 315 315 314 314 315 315 314 315 315 316 317 317 314 314 316 300 299 311 312 311 299 291 290 289 293 304 307 308 309 310 311 310 311 310 310 312 310 311 301 302 309 311 312 309 309 310 311 308 309 310 310 311 310 311 310 304 296 301 307 309 308
303 303 304 304 307 309 309 309 309 310 309 309 310 310 309 309 309 308 310 310 310 308 310 312 313 315 315 315 315 315 315 315 313 307 313 314 314 308 307 311 313 305 307 307 311 312 314 312 308 301 299 304 308 309 309 310 310 311 306 311 311 311 311 307 308 310 311 311 310 310 310 310 311 312 311 311 310 309 310 311 310 310 311 309 310 310 310
303 304 306 307 308 310 310 310 310 310 310 310 311 310 310 310 309 309 310 301 310 310 310 311 311 314 316 316 314 315 315 314 312 313 308 313 313 314 313 302 313 310 311 310 311 313 313 312 303 296 297 306 308 309 301 299 308 311 311 308 306 311 310 309 308 309 311 309 310 311 311 310 311 311 310 311 310 310 309 309 310 311 309 311 311 311 310
Wind_Speed
10 9 10 8 8 9 10 10 10 11 10 11 13 14 14 13 9 12 11 12 15 14 12 12 11 10 9 8 8 8 7 7 7 8 8 10 11 12 13 14 14 14 13 12 11 10 10 10 9 9 9 9 9 8 8 7 6 6 5 5 5 5 4 5 4 3 2 2 1 1 2 2 1 2 2 3 4 5 5 5 5 6 5 5 6 6 7
9 9 9 7 10 10 12 12 12 12 13 14 14 15 15 15 16 16 15 17 18 15 15 13 10 6 5 5 5 5 7 9 9 9 10 11 11 13 14 15 15 14 14 13 12 11 11 11 11 10 9 9 9 9 8 8 7 5 5 5 5 5 5 4 3 3 2 1 1 2 2 3 2 3 3 3 3 3 5 5 5 5 5 3 3 4 4
9 9 7 8 9 10 13 13 13 13 13 14 15 15 15 16 16 17 17 17 16 13 11 10 6 5 4 5 7 7 7 7 9 10 11 12 12 13 14 15 15 15 15 14 13 12 12 11 11 10 10 9 9 9 9 7 7 5 5 5 5 5 5 3 3 3 2 2 2 3 3 3 3 4 3 3 4 3 4 5 6 5 4 4 4 7 7
8 8 7 7 8 9 13 14 14 14 14 14 13 13 12 13 14 15 13 13 11 9 7 5 6 8 8 8 7 7 7 7 8 9 11 12 13 14 14 15 15 15 15 15 14 13 12 12 11 11 10 10 9 9 8 8 6 6 5 5 5 5 5 3 4 4 3 3 4 3 4 4 4 3 3 3 3 3 2 3 4 3 4 6 7 8 8
7 4 4 7 8 10 12 13 15 14 13 13 12 12 12 14 13 10 10 11 9 9 7 8 8 8 8 9 8 8 8 7 8 9 11 11 12 13 13 14 16 16 15 14 14 13 12 11 11 12 10 10 10 9 8 7 5 4 5 5 4 5 4 4 4 3 4 4 4 3 3 4 3 4 3 3 2 2 2 2 2 3 2 5 7 9 10
7 7 5 5 7 10 8 4 4 1 3 3 7 9 11 13 12 11 10 11 10 12 10 10 9 8 7 7 6 4 6 5 7 9 9 10 11 12 13 13 15 15 13 12 13 13 12 12 11 10 10 9 8 8 8 7 6 6 5 5 4 5 5 5 4 4 5 4 4 3 3 4 4 4 3 2 2 2 1 1 1 1 3 3 6 9 10
8 5 4 6 10 10 2 3 4 4 7 9 13 14 13 12 13 15 16 16 15 14 11 9 9 9 9 6 8 8 7 7 7 7 8 9 10 11 13 13 13 13 14 14 13 12 12 12 10 9 9 9 8 8 7 7 7 6 5 5 5 5 5 5 4 4 5 4 4 4 3 3 4 4 2 1 1 1 0 1 1 1 2 2 6 8 9
5 5 6 8 7 3 0 7 1 2 2 4 6 9 12 15 15 14 15 14 13 11 9 8 7 6 6 6 9 9 9 8 8 8 8 8 9 11 11 13 13 13 14 13 13 12 11 11 11 10 9 7 8 9 8 8 7 6 6 6 6 5 5 5 5 4 4 3 4 4 4 3 4 2 1 1 1 0 1 2 3 3 2 3 4 8 7
8 7 8 11 12 15 12 12 8 5 4 4 2 4 7 7 8 10 11 11 10 8 6 5 4 3 4 6 7 9 9 9 9 9 7 6 8 9 10 11 12 12 13 13 12 11 11 11 11 10 9 9 9 9 8 8 7 6 6 6 7 5 5 5 4 4 3 4 4 5 4 3 2 1 0 1 0 1 2 2 3 4 2 3 3 7 8
5 9 9 8 8 9 6 1 5 5 3 2 2 6 10 7 7 7 8 7 4 4 3 2 2 2 6 6 5 4 4 7 8 8 7 6 8 10 10 10 10 11 11 10 11 11 12 12 12 10 10 9 10 10 9 8 7 7 7 7 7 6 6 5 4 3 3 4 4 4 3 1 1 1 1 0 1 1 2 3 4 4 3 3 5 6 8
5 7 10 9 9 7 3 1 8 6 5 1 3 6 8 3 4 4 4 3 2 2 2 2 4 5 5 6 1 5 4 6 7 8 8 8 8 9 11 12 12 11 11 11 11 11 12 13 12 11 11 12 11 10 9 9 8 8 7 8 7 7 6 5 2 1 3 4 3 3 2 0 0 0 1 1 1 2 2 4 4 4 4 3 5 6 7
10 9 9 10 5 6 3 2 5 7 6 1 7 7 3 8 5 3 2 1 1 0 1 3 4 5 5 6 5 3 2 2 4 6 7 8 8 9 9 10 10 10 10 11 11 12 13 13 13 12 11 10 11 10 10 9 9 8 8 8 8 6 5 3 4 1 2 3 3 2 1 0 0 1 1 2 3 3 3 3 4 4 4 4 5 6 6
11 12 10 9 8 7 10 9 6 9 5 4 6 8 1 5 3 2 2 1 1 2 3 3 4 3 4 4 3 2 1 1 4 5 5 7 8 8 9 9 9 10 11 11 12 13 13 14 12 11 11 11 11 11 9 8 8 9 8 8 7 6 5 4 5 4 1 3 1 2 2 1 1 1 2 3 3 4 4 3 4 4 5 4 5 6 6
12 10 12 10 10 8 7 6 9 10 4 7 8 0 3 2 1 1 2 2 2 3 1 1 4 3 1 1 1 2 2 2 2 5 6 6 7 7 8 9 9 9 10 11 12 13 12 12 11 11 12 11 10 10 9 9 9 8 8 7 7 6 6 6 5 5 3 1 2 3 2 2 2 3 2 2 3 4 4 5 5 6 5 4 4 5 5
8 8 10 9 11 2 4 9 8 9 6 5 3 3 1 2 1 2 2 0 2 3 1 2 3 2 1 2 2 3 3 4 4 5 7 8 10 10 10 11 12 11 11 12 13 13 11 11 11 11 12 12 10 9 9 9 8 8 6 6 7 7 6 6 4 4 4 4 4 3 3 3 2 3 3 3 3 3 5 6 6 5 5 4 4 5 4
8 10 10 8 6 3 12 10 3 9 11 2 2 4 3 2 3 3 3 2 1 3 3 2 2 2 2 2 4 4 5 5 4 4 5 7 8 10 11 11 11 12 10 10 10 10 10 10 11 11 12 12 10 9 9 7 6 5 6 7 7 6 5 5 5 4 5 6 5 4 4 3 3 3 4 4 3 4 5 6 5 5 3 4 4 4 4
8 7 8 10 6 3 9 9 4 4 10 7 3 4 6 6 6 4 5 4 4 4 3 4 4 4 3 3 1 4 4 5 6 6 6 7 8 9 10 11 10 11 10 11 10 10 9 11 10 11 12 12 10 10 7 6 6 7 7 7 6 6 6 6 6 6 5 5 5 5 4 4 3 4 4 4 4 5 6 6 6 5 4 3 3 3 4
11 12 10 5 5 7 7 8 6 5 5 5 6 7 7 6 6 5 6 5 4 4 4 5 4 5 3 3 3 4 4 4 5 6 6 7 7 8 9 9 9 11 10 10 10 11 10 11 10 11 11 10 11 10 7 7 8 7 7 7 7 7 7 6 6 6 6 5 6 5 5 4 4 3 4 5 5 6 7 6 6 6 6 5 4 4 3
4 6 11 15 14 10 8 8 8 8 7 7 6 6 6 5 4 5 5 6 6 5 5 6 7 5 4 4 3 4 4 5 5 7 7 8 8 9 11 9 8 9 9 9 10 11 11 11 10 11 11 10 10 8 7 8 8 7 8 7 7 7 6 6 6 6 6 6 6 6 6 5 4 4 4 5 5 6 7 6 6 6 6 6 5 4 4
9 6 3 5 6 7 6 7 7 7 7 6 5 4 2 3 3 4 4 4 5 5 7 7 7 7 6 6 5 5 5 6 7 7 8 8 8 8 8 8 9 8 7 8 10 11 11 11 10 10 10 10 10 8 9 8 8 8 7 7 7 7 7 6 6 6 6 6 2 5 6 5 5 4 4 4 5 7 7 7 7 7 6 6 5 4 4
9 12 10 7 6 6 6 7 6 4 5 6 5 4 4 3 3 2 3 4 4 5 7 5 7 7 7 7 6 6 5 5 6 7 7 7 7 7 9 10 10 10 9 9 10 11 11 11 10 10 10 10 9 9 9 8 8 8 7 8 7 6 6 6 6 6 6 7 7 6 6 5 4 4 5 5 6 5 6 6 5 7 8 5 4 4 5
8 8 7 7 8 6 6 4 5 4 4 2 3 4 4 3 2 2 3 2 3 4 5 6 7 8 7 6 6 7 6 6 6 7 7 8 8 8 8 7 10 10 10 11 12 11 9 10 10 10 10 10 9 9 9 8 8 8 8 8 7 6 6 6 6 6 7 6 7 7 6 5 5 5 9 9 6 2 6 6 8 9 7 2 1 4 4
4 6 7 5 4 5 2 3 6 4 3 3 3 4 3 2 2 3 4 4 4 3 4 6 8 9 7 6 5 6 6 5 6 7 9 9 9 9 9 9 10 10 11 11 11 11 9 10 10 10 10 10 9 9 9 9 9 9 9 8 7 6 6 6 6 6 7 6 7 7 6 5 4 5 6 6 7 8 9 7 7 7 7 7 9 10 5
14 11 6 9 8 8 9 6 6 8 4 4 5 5 4 3 4 5 5 5 6 5 4 3 6 7 7 7 6 7 7 6 6 7 8 9 9 9 9 10 11 12 11 11 11 12 10 10 11 11 10 10 10 10 10 10 10 9 9 8 7 6 6 6 6 7 7 6 7 7 6 5 5 5 5 6 6 7 7 7 5 5 4 5 4 2 5
9 7 12 13 12 13 10 10 8 10 9 8 7 7 5 6 8 7 7 7 7 7 6 5 3 5 7 7 8 8 8 8 8 8 8 8 9 10 10 10 11 12 12 12 12 12 11 10 10 10 11 10 10 10 10 10 10 10 10 9 7 7 6 6 6 8 7 7 7 7 6 6 5 5 5 5 5 6 5 7 6 4 3 3 2 1 3
8 7 9 12 14 14 13 11 11 11 11 9 6 6 6 8 8 9 10 9 8 7 8 7 5 4 6 7 7 7 7 7 9 9 8 9 9 9 10 11 12 11 12 12 12 11 11 12 11 11 11 10 10 10 10 10 11 11 10 9 8 7 7 7 7 7 8 7 7 7 6 7 6 6 6 5 5 6 7 6 5 3 2 1 0 2 1
9 7 4 10 15 15 13 12 10 10 8 4 6 9 10 12 8 8 8 9 9 9 9 8 7 5 4 6 7 7 7 6 9 9 9 10 11 11 12 12 13 12 12 12 11 11 12 11 11 11 11 11 10 10 10 11 11 11 11 10 8 6 6 7 7 7 8 7 7 7 7 7 7 7 6 6 6 7 7 8 8 8 8 6 5 6 5
10 9 8 10 14 14 13 13 12 11 10 11 12 13 13 11 9 10 11 11 10 9 7 7 7 6 6 6 7 7 8 9 10 10 10 11 11 10 10 11 12 12 11 11 11 11 11 11 11 11 12 11 11 11 11 11 11 11 11 10 9 8 9 9 8 7 8 8 7 8 7 7 7 7 6 6 7 7 7 6 8 9 9 9 9 9 8
12 12 11 13 15 13 14 18 18 18 16 15 15 13 13 12 12 11 11 11 10 9 9 8 7 7 7 6 7 8 9 10 11 11 11 10 10 9 9 11 11 11 10 11 11 11 11 12 11 11 11 11 11 12 12 12 11 11 11 10 9 9 8 9 9 7 8 8 8 8 7 7 6 7 7 7 7 7 7 8 9 9 10 10 10 8 5
15 14 14 14 15 12 14 19 19 18 17 16 15 14 13 12 12 11 11 11 10 11 10 9 8 8 7 8 9 10 11 12 12 11 10 10 9 9 9 9 9 9 9 9 11 10 11 12 12 12 11 11 12 12 13 12 11 12 12 11 10 9 9 9 9 8 8 8 9 8 8 8 8 8 8 8 8 8 8 8 9 9 10 11 12 11 12
15 14 14 14 16 16 17 18 17 16 16 16 15 15 14 14 14 13 13 12 12 12 11 11 9 9 9 9 9 9 9 9 9 9 9 9 9 10 10 11 10 10 10 11 12 11 11 12 12 12 11 12 13 13 13 12 11 11 11 10 10 9 7 11 10 9 8 9 9 10 9 9 8 8 8 8 8 8 8 8 9 9 10 10 11 11 12
15 15 15 14 13 15 16 16 15 15 15 14 15 16 15 14 15 15 14 13 13 12 12 12 11 10 8 8 7 8 8 8 8 8 8 9 9 10 11 12 12 11 11 12 12 12 11 12 12 12 12 12 13 13 13 12 12 11 11 10 10 10 8 10 7 9 8 9 9 10 10 10 9 9 9 9 9 9 9 9 9 10 10 9 10 11 12
14 14 15 15 15 15 16 15 14 14 14 15 15 14 14 14 14 14 13 12 12 12 12 12 10 9 8 7 7 8 8 8 8 9 9 9 10 10 10 10 10 10 10 10 11 12 12 13 12 12 13 12 13 13 13 12 11 11 11 11 10 10 10 11 11 9 8 8 9 9 10 10 9 9 9 10 9 9 9 9 9 10 10 10 10 11 12
14 14 14 13 12 11 12 13 12 13 12 12 13 13 14 13 13 13 13 12 13 13 12 12 10 10 9 8 7 8 8 8 8 10 12 12 11 11 11 10 9 10 9 10 11 10 10 11 12 12 13 13 13 12 12 12 11 11 11 11 11 10 9 9 8 10 10 10 9 10 9 10 10 9 10 10 10 10 10 10 10 9 10 10 10 10 10
13 14 16 16 16 17 17 16 15 14 14 15 14 14 13 12 12 13 12 12 13 12 11 11 11 11 11 9 8 8 9 11 11 11 12 12 12 11 11 10 9 9 10 10 10 10 10 11 11 12 13 14 13 11 11 12 11 10 11 11 11 10 10 10 11 11 11 10 10 10 10 10 9 9 9 9 10 10 10 10 10 10 10 10 10 11 9
12 12 13 13 14 15 16 15 15 16 15 15 15 14 14 13 13 13 13 13 12 12 12 12 12 12 11 10 9 9 11 11 11 11 10 11 11 10 11 12 11 11 11 10 11 10 11 11 12 11 11 12 12 12 12 11 11 11 11 11 10 10 10 10 10 11 11 10 10 10 10 10 10 9 9 9 9 9 10 10 10 10 10 10 10 11 9
11 11 11 12 12 13 14 13 13 12 12 13 12 12 13 13 13 13 12 12 12 12 11 11 11 12 12 11 10 9 10 10 10 9 9 9 10 11 12 12 12 12 11 10 11 11 11 10 12 13 11 11 11 12 12 13 10 11 10 11 10 11 10 10 10 10 11 11 11 11 11 10 10 10 10 10 9 9 10 10 11 11 10 10 10 11 11
10 10 10 10 10 11 12 11 10 10 10 11 11 11 12 11 11 10 10 10 10 10 10 11 12 12 11 10 10 11 11 10 11 11 10 10 11 12 12 11 11 11 11 12 11 11 10 12 16 12 12 11 11 12 13 17 13 11 10 11 11 11 11 11 11 11 11 11 12 11 11 11 11 11 11 11 10 10 10 10 10 10 11 10 10 11 11
9 8 8 8 9 10 10 10 9 9 9 10 10 10 9 9 9 9 9 10 10 10 10 11 11 12 12 12 12 11 11 11 11 11 10 11 11 12 12 13 13 13 13 12 12 12 11 13 12 12 12 12 13 13 13 17 16 11 11 10 11 11 11 11 11 11 11 11 11 11 12 11 11 11 11 11 11 11 11 11 10 11 11 11 11 11 11
8 8 8 8 8 8 9 8 8 7 7 7 8 9 7 7 8 8 9 10 10 10 11 11 11 11 12 13 13 12 12 11 10 10 11 10 11 11 10 11 12 12 13 13 12 11 14 19 15 11 11 12 12 12 10 14 15 11 11 11 10 11 11 11 11 11 11 11 11 11 11 11 12 12 12 11 11 11 11 11 11 11 12 11 11 11 11
9 8 8 8 8 7 7 7 7 7 7 7 7 7 7 7 8 9 10 11 10 10 11 11 12 12 13 13 13 13 11 10 10 11 10 10 10 10 10 10 12 13 12 10 11 10 17 15 13 11 11 12 11 12 10 15 14 11 11 11 11 11 11 11 11 12 11 12 11 11 12 11 11 12 12 12 12 11 11 11 11 12 12 12 12 12 11
9 10 10 10 9 8 8 8 8 8 7 7 7 8 8 8 8 9 10 10 10 10 10 11 14 13 12 12 12 11 11 11 11 11 11 11 11 10 10 10 11 11 14 13 11 9 12 13 14 13 13 12 11 15 13 11 12 12 12 12 12 12 12 12 11 12 11 11 11 11 11 12 12 12 12 12 12 12 12 12 11 12 12 13 13 12 12
10 11 11 10 10 10 9 9 9 9 9 8 8 8 8 8 8 9 10 10 11 11 11 11 12 12 13 12 12 12 11 11 11 10 10 11 12 11 10 8 9 10 15 13 13 11 12 12 12 12 14 14 13 18 17 11 12 11 11 11 11 11 11 12 11 11 11 11 11 11 11 12 12 12 12 13 13 13 12 12 12 12 12 12 13 13 12
11 10 10 10 10 10 10 10 10 10 10 9 7 7 8 8 8 9 10 10 11 11 11 11 11 11 12 13 12 11 11 11 10 9 9 9 9 11 12 10 9 8 16 12 12 12 12 12 12 15 17 17 16 20 15 12 12 11 11 11 11 11 12 11 11 11 11 11 12 12 12 12 12 13 13 13 13 13 13 13 12 12 12 12 12 12 12
12 10 11 11 12 11 10 10 10 10 9 9 9 9 9 9 9 9 9 10 11 11 10 11 11 11 11 11 12 13 11 11 10 10 10 10 9 10 12 13 12 8 10 14 12 12 11 12 13 16 16 19 15 16 12 12 11 12 12 12 12 12 11 12 12 12 12 12 12 12 11 12 12 13 13 13 13 13 13 13 13 13 12 12 12 12 12
13 11 11 11 11 11 10 11 10 10 10 10 10 10 10 10 10 8 8 9 10 10 10 10 11 11 12 11 11 10 10 9 9 10 11 10 11 9 10 12 11 12 15 16 10 12 12 16 17 17 18 18 16 13 12 12 11 11 12 12 12 12 12 12 12 12 12 12 12 12 12 12 12 12 13 13 13 14 13 13 12 13 12 12 12 12 12
12 12 11 10 10 11 11 10 10 10 10 10 10 10 9 8 7 7 8 8 9 9 9 9 10 11 11 11 10 8 9 9 9 9 9 9 9 8 4 9 10 11 10 10 11 11 10 12 14 17 18 18 18 13 13 12 13 12 12 12 12 12 13 12 13 13 12 12 12 12 13 12 12 12 12 13 13 13 13 13 13 13 12 12 12 12 12
12 12 12 11 11 11 10 10 10 9 9 10 10 10 9 9 9 8 8 8 8 8 8 9 9 9 10 11 11 10 8 8 9 9 9 9 9 9 9 8 9 12 15 13 13 11 12 12 15 17 15 16 13 12 13 13 13 13 13 12 13 12 12 12 12 12 12 12 12 12 12 12 12 12 12 13 13 13 13 13 12 12 12 12 12 12 13
11 12 12 12 11 10 9 8 8 9 8 8 9 8 8 9 9 9 9 8 8 7 7 8 9 9 9 10 10 8 9 8 9 9 6 7 8 8 9 10 9 13 12 10 11 11 13 13 11 14 16 14 11 12 12 12 12 12 12 12 12 13 13 13 12 12 12 12 12 13 12 12 12 12 12 12 13 13 12 13 12 12 12 12 12 12 12
11 11 11 10 9 8 7 6 7 7 7 7 8 7 7 8 8 8 8 7 6 7 7 7 6 7 7 7 8 8 8 9 9 9 8 7 6 7 7 8 7 12 12 9 10 9 10 15 11 11 12 10 11 12 12 12 13 13 12 13 13 12 13 13 12 12 11 12 11 11 12 12 12 13 12 12 12 12 12 12 12 12 13 11 11 12 12
10 10 10 10 10 9 8 8 8 7 8 8 8 7 7 7 8 8 8 8 8 8 8 7 6 6 6 7 7 7 8 9 9 9 8 8 8 8 8 7 7 8 10 10 9 9 8 8 9 11 11 11 11 12 12 12 12 12 13 12 13 12 11 11 12 12 13 12 12 12 13 12 12 12 12 12 12 12 12 11 11 10 11 11 11 11 10
11 10 10 10 9 9 9 8 8 7 7 6 6 6 6 7 8 8 8 8 7 7 7 7 8 6 6 6 7 7 7 7 7 7 8 8 7 7 8 7 7 7 8 9 9 9 9 8 10 13 13 11 11 11 12 12 12 11 12 12 12 12 12 11 12 12 13 13 12 12 13 12 12 12 12 12 12 11 11 11 11 10 10 10 11 10 10
Wind_Direction
259 262 272 274 261 258 264 263 263 255 242 235 238 243 251 261 262 271 286 291 286 286 288 292 290 289 284 285 288 281 276 264 237 227 221 216 216 214 213 209 208 208 204 201 201 203 207 214 214 212 222 227 231 232 233 238 242 242 234 246 258 268 268 269 274 276 273 286 306 282 283 285 311 335 358 1 355 0 356 357 344 332 315 293 286 275 271
267 263 258 259 261 262 256 253 253 253 251 246 244 248 250 253 259 265 273 280 282 288 291 291 294 296 288 284 276 263 245 240 239 228 223 221 219 214 212 210 208 207 208 205 201 200 203 210 208 207 217 229 225 227 231 240 240 236 235 236 256 257 259 259 261 258 252 253 282 296 276 278 303 312 322 335 338 354 1 3 0 345 336 330 330 358 343
256 252 246 251 255 262 267 262 257 253 250 252 249 250 251 256 261 262 265 273 279 283 282 274 264 264 275 258 251 251 252 245 233 229 226 223 222 217 214 211 208 207 208 208 204 200 202 207 208 208 219 222 223 227 231 228 235 223 223 230 243 253 256 255 248 242 239 240 265 268 306 302 306 307 325 324 318 333 12 13 8 11 10 30 42 37 30
264 254 243 252 253 259 266 269 259 251 247 246 240 240 240 245 250 257 266 269 269 277 281 283 274 264 249 248 250 250 243 235 231 232 232 227 221 217 214 211 207 206 207 206 205 203 204 205 207 215 218 223 223 230 228 230 226 225 226 233 243 237 250 244 239 242 239 242 254 280 287 295 310 326 319 308 320 325 359 29 28 25 54 69 75 67 53
260 271 245 269 278 275 265 253 252 250 247 246 248 246 239 236 246 258 258 262 275 296 310 290 275 264 258 257 254 256 245 239 239 236 236 233 223 218 212 209 206 206 205 204 204 207 208 206 209 218 218 223 224 222 214 217 217 220 220 231 237 246 245 238 244 256 259 264 276 276 287 307 313 297 303 307 329 332 37 40 26 348 30 76 70 67 60
267 265 251 266 271 257 257 58 101 139 249 241 248 246 239 237 232 245 254 267 276 281 283 279 283 283 275 267 267 275 280 254 233 245 243 237 227 216 212 207 205 203 204 207 208 208 212 210 211 220 221 221 214 211 211 202 202 212 228 223 234 244 243 247 250 254 269 279 287 296 303 305 302 293 292 327 338 323 32 85 42 327 321 53 68 70 65
261 295 277 271 262 258 321 155 242 252 274 273 266 265 260 255 245 244 250 259 266 272 277 284 287 282 281 269 258 249 237 243 253 246 241 233 226 219 211 207 204 203 204 208 209 205 207 208 204 212 217 209 202 202 204 197 205 215 223 233 226 234 245 250 254 263 275 279 291 307 308 309 295 293 323 14 286 263 54 49 36 351 331 30 68 64 65
261 267 257 260 258 17 333 268 269 91 251 253 253 257 254 251 251 248 248 259 266 268 275 280 279 284 289 278 258 248 238 231 236 238 236 230 219 215 209 204 204 205 205 206 206 207 206 203 202 202 206 199 196 204 201 208 209 216 225 235 232 225 239 244 259 261 276 290 295 303 305 306 288 288 8 25 314 222 152 128 104 91 58 3 68 80 76
243 244 258 258 290 288 275 267 213 197 210 202 263 312 302 284 253 237 244 248 257 268 269 283 287 280 265 257 246 219 224 214 219 230 238 223 214 212 210 203 202 201 201 203 204 202 199 199 198 203 196 195 204 208 205 217 214 213 224 238 242 223 240 247 258 273 288 301 307 310 313 297 287 295 212 93 225 223 167 140 117 101 68 7 19 81 81
208 259 268 266 263 265 268 203 117 154 107 59 7 314 297 261 249 240 238 243 244 247 256 239 241 213 243 247 249 142 194 199 205 210 217 209 203 200 200 200 199 201 200 199 198 198 194 197 202 201 201 196 204 209 211 213 213 218 225 238 241 236 238 244 248 268 285 294 310 314 299 282 299 330 316 28 132 218 173 144 116 94 88 50 33 60 74
195 235 255 260 267 263 325 163 158 150 142 97 295 291 278 125 125 153 184 210 235 295 271 185 194 226 254 270 29 116 181 195 197 197 196 198 200 197 196 194 197 197 197 198 194 190 195 199 202 202 202 204 209 208 211 209 216 225 228 243 242 241 243 242 245 317 305 306 316 305 292 264 222 295 279 179 156 193 153 131 110 105 82 59 56 55 68
232 242 245 255 248 264 253 267 184 153 139 90 307 284 291 121 139 136 151 148 17 212 183 183 226 263 276 299 53 55 59 191 186 205 191 190 195 198 197 195 196 192 188 191 193 194 198 201 201 201 202 201 208 213 214 216 216 226 232 243 244 239 243 202 159 190 270 282 295 288 275 45 76 124 132 150 164 180 162 152 135 106 88 76 70 65 65
227 226 250 259 262 256 248 229 170 151 133 309 270 239 80 110 133 155 174 137 131 146 176 211 264 249 347 28 59 57 74 189 195 197 201 197 196 196 195 189 183 184 185 191 191 191 198 201 200 200 195 202 211 213 211 210 215 230 241 238 242 243 238 219 182 169 282 290 269 256 249 204 163 191 166 150 160 172 165 146 133 101 93 85 79 76 70
234 228 236 249 268 271 259 223 208 151 193 226 234 305 71 113 112 180 218 185 173 170 196 250 306 21 72 132 188 223 237 241 201 196 188 190 189 191 185 162 179 184 186 191 197 202 204 201 199 197 198 202 207 207 204 215 224 236 240 231 230 232 226 225 234 164 175 261 245 242 222 211 184 172 162 157 156 163 157 138 127 112 99 92 84 82 80
237 236 241 246 255 142 191 135 148 173 216 250 254 323 30 41 165 206 196 150 191 214 203 244 300 301 236 235 223 232 230 230 207 196 194 192 186 185 177 178 189 191 189 191 195 198 196 193 190 186 186 195 200 201 208 213 222 234 230 222 222 225 224 229 219 213 171 172 227 224 204 216 186 169 167 163 164 152 143 134 121 114 100 102 101 91 88
221 220 221 225 239 173 153 165 192 178 218 331 36 308 275 229 298 276 265 229 253 247 280 282 253 262 265 228 230 235 231 222 220 200 204 209 201 192 194 194 187 194 198 192 190 185 186 184 184 185 189 196 196 199 207 208 221 202 204 217 221 218 213 224 211 214 188 177 202 200 193 201 167 170 166 166 181 164 156 138 132 109 103 106 107 108 104
225 229 228 229 244 164 181 210 246 205 215 233 263 284 283 289 277 292 269 271 245 235 261 267 278 262 228 263 212 235 217 218 210 207 202 207 206 201 195 195 183 188 196 188 187 184 182 183 185 186 190 198 190 194 198 202 189 195 202 202 202 210 215 222 205 211 197 190 183 199 176 201 185 169 165 188 179 162 161 148 137 126 123 127 122 122 115
223 255 278 299 234 212 206 218 246 248 232 244 251 259 272 264 278 272 276 279 265 235 229 256 242 259 262 233 208 210 205 205 203 206 206 204 202 201 194 193 187 197 197 193 184 178 177 180 183 186 191 189 182 193 202 196 194 198 197 198 201 214 222 221 205 203 194 196 197 185 197 195 180 183 177 184 184 162 166 158 151 150 152 153 158 142 146
222 239 224 236 242 236 229 240 234 234 245 259 256 256 249 269 292 292 278 271 259 246 240 235 251 258 250 250 221 203 195 196 202 205 207 205 198 193 196 190 178 193 194 190 187 180 177 176 180 181 187 188 190 201 192 194 196 194 198 199 201 210 212 207 196 211 195 199 195 178 199 208 199 175 172 190 164 172 166 162 155 158 160 168 171 165 151
228 253 256 262 249 253 249 247 229 225 223 214 204 223 242 275 284 285 297 275 251 235 231 228 236 248 244 241 232 212 199 191 193 200 205 201 197 192 190 175 179 189 195 197 189 182 173 171 177 179 185 196 198 194 184 196 195 191 195 195 206 209 202 210 200 189 210 111 183 192 191 204 196 186 173 184 188 176 178 168 171 170 178 180 183 167 161
235 248 256 245 245 252 241 221 239 226 167 163 178 186 213 226 258 266 258 243 268 244 243 235 232 240 238 234 237 229 211 194 190 193 195 196 192 180 182 173 178 191 196 199 187 182 174 171 176 181 189 194 187 179 182 186 188 188 190 189 205 210 200 204 205 194 213 187 204 208 186 198 206 180 183 179 182 186 178 184 181 181 183 188 181 154 172
236 239 255 260 248 248 186 162 173 173 162 196 182 196 210 218 252 291 318 311 246 252 254 242 237 242 243 236 225 231 229 214 195 190 186 184 184 183 183 176 185 188 190 192 185 186 182 174 180 186 184 186 179 180 185 191 186 191 185 187 200 202 198 203 200 197 211 199 189 207 188 195 179 112 57 59 36 19 186 104 54 39 43 39 117 178 155
249 15 5 352 297 268 258 325 274 195 202 219 238 235 234 265 299 312 304 313 319 296 242 226 230 235 241 232 210 222 226 214 194 191 185 181 181 181 181 181 184 188 187 191 191 192 188 179 187 187 185 186 184 188 185 181 185 193 184 190 197 199 194 203 200 198 206 196 191 198 190 191 182 158 152 106 77 64 30 70 69 39 48 35 26 21 16
287 283 302 332 314 312 309 322 308 300 295 283 275 279 267 279 316 320 304 300 301 301 311 243 227 241 240 236 218 218 217 208 193 195 193 190 182 176 182 192 184 184 184 188 196 199 188 187 193 190 191 191 190 188 188 190 189 199 195 195 197 199 190 196 175 199 208 192 195 198 186 187 178 174 166 153 130 72 73 76 69 89 91 51 18 32 24
243 288 303 300 300 292 293 291 268 255 260 269 277 283 292 312 313 316 305 298 285 290 293 295 263 229 237 232 224 222 216 197 194 193 190 187 181 178 184 195 195 187 186 189 195 197 195 193 194 190 195 195 190 187 188 193 192 196 198 197 201 198 193 191 181 201 219 189 202 198 189 187 187 181 177 160 144 145 112 89 89 63 38 30 85 213 89
245 253 281 294 294 292 288 286 271 261 261 259 251 253 271 286 299 297 293 287 285 281 284 286 280 246 231 238 232 227 220 201 178 176 184 184 180 185 185 194 197 197 194 195 199 199 199 196 197 193 199 192 188 187 190 191 190 194 199 199 199 200 195 191 194 192 207 199 197 201 199 195 195 185 181 171 158 145 153 158 149 130 138 175 169 145 92
220 205 231 289 280 273 269 264 272 275 270 252 258 277 285 290 281 271 280 278 273 272 270 272 275 270 240 235 242 232 221 187 163 184 195 193 191 192 191 194 196 197 198 195 194 192 194 195 198 198 201 193 187 183 188 187 187 193 200 199 201 157 141 187 200 195 203 202 198 201 199 194 193 198 184 180 164 165 168 164 167 170 175 173 169 204 189
233 215 188 229 252 261 272 283 287 289 277 275 282 286 287 286 281 273 275 274 270 262 251 248 251 246 241 222 216 211 206 199 193 192 196 200 200 200 197 192 192 195 197 197 199 189 190 196 199 203 205 195 184 183 188 184 186 193 199 198 201 191 176 190 206 200 199 202 199 200 200 197 195 194 191 185 180 180 175 171 175 174 176 176 176 185 212
251 240 219 220 238 253 287 291 283 278 277 277 278 276 275 272 267 269 271 273 275 274 269 265 242 235 244 234 212 217 208 205 205 199 199 201 198 195 192 187 188 190 196 202 206 193 192 199 202 205 207 193 183 181 187 184 187 195 200 198 203 199 179 187 199 198 196 196 198 198 198 200 199 197 198 192 195 191 184 181 184 183 181 173 172 151 178
252 247 237 232 238 229 233 256 264 267 269 272 274 271 266 266 267 266 269 272 275 274 272 270 260 245 231 230 218 216 214 211 209 203 198 193 191 186 181 178 176 183 191 201 208 200 198 201 203 208 204 188 185 183 186 184 190 197 199 201 208 207 197 183 191 193 191 193 191 181 193 203 204 202 201 199 197 200 198 195 190 192 188 177 171 181 186
258 255 247 244 244 244 245 253 260 265 267 270 270 270 266 265 267 267 268 271 272 272 270 267 262 258 244 238 236 228 228 225 218 210 198 184 180 180 176 174 177 186 192 198 201 201 203 204 205 209 201 188 186 184 185 185 193 195 201 202 207 201 187 162 187 192 187 190 180 189 195 203 206 206 201 204 200 205 204 199 195 201 204 186 184 189 189
264 264 260 251 244 246 252 255 258 261 263 265 264 262 263 264 264 264 264 263 263 265 267 263 257 253 252 250 245 237 226 223 219 209 192 178 177 179 183 187 194 196 197 196 195 196 200 201 202 204 200 191 186 184 184 190 194 199 205 201 208 195 172 167 189 201 201 187 184 189 195 200 205 205 203 206 207 206 208 207 197 202 207 204 190 197 194
256 259 255 252 251 250 253 255 256 259 261 261 260 262 264 264 264 263 263 263 263 260 259 258 257 257 256 252 243 234 224 214 210 205 198 190 186 184 188 192 196 199 202 197 193 194 195 198 200 198 198 191 187 186 185 188 195 205 209 209 210 207 165 178 201 196 203 200 193 194 192 200 206 204 207 205 209 210 209 210 205 202 207 210 206 197 205
257 258 265 267 269 266 260 255 251 254 256 257 260 262 261 259 257 258 257 255 256 256 256 256 257 255 256 248 236 232 221 210 203 204 204 200 191 186 186 189 193 194 199 196 192 196 200 201 199 194 193 189 187 185 184 186 195 207 210 210 208 203 172 180 189 205 199 202 203 196 203 197 207 209 206 204 208 210 210 208 208 206 206 208 210 206 180
260 260 262 264 263 262 261 262 263 266 268 267 267 264 260 260 258 257 257 259 257 256 258 258 256 255 252 243 229 224 217 216 215 208 204 200 193 183 178 180 185 190 193 196 195 197 196 200 201 197 190 188 184 176 180 187 193 204 201 203 204 202 190 178 185 197 206 201 207 202 203 205 205 207 209 207 206 207 209 212 210 206 208 207 206 211 176
281 273 269 268 264 265 265 264 265 265 266 266 266 267 266 264 263 260 254 249 251 253 254 255 255 254 248 237 229 222 222 225 227 221 209 201 192 175 172 177 181 184 189 194 198 196 192 197 195 191 191 188 184 179 182 185 193 201 200 200 200 203 199 184 188 192 202 206 206 209 210 205 207 204 204 209 212 210 209 206 212 211 211 211 207 207 185
297 290 285 278 275 273 273 273 271 269 266 264 264 263 262 259 258 257 258 258 256 253 253 252 250 248 244 237 232 231 228 229 229 226 217 204 188 178 179 182 182 185 185 198 194 192 192 192 176 175 193 187 188 188 174 174 193 198 197 201 203 204 202 197 196 199 198 206 208 207 205 200 203 204 202 211 213 212 213 213 209 213 216 214 211 210 204
304 303 299 291 284 281 279 277 276 274 268 265 260 259 260 263 263 264 263 260 257 252 249 247 247 247 245 242 238 235 231 226 226 223 216 203 192 190 188 187 188 187 194 212 188 178 193 169 159 176 196 199 193 195 168 175 191 197 200 202 205 205 204 206 200 203 203 203 203 206 201 203 204 207 203 207 213 213 212 217 216 213 216 216 216 213 213
306 302 293 286 280 276 276 276 272 266 260 259 261 262 261 261 266 267 267 263 259 253 249 245 243 243 240 237 236 232 228 226 223 220 214 205 197 196 199 200 199 196 202 207 186 181 169 157 169 184 195 204 196 198 167 177 187 201 206 205 203 208 203 207 206 204 205 205 201 205 204 204 207 208 207 206 210 210 210 212 215 217 219 218 216 214 213
312 310 310 306 292 286 280 276 274 271 267 261 262 265 267 264 260 259 258 257 252 245 243 243 238 237 233 232 231 231 226 223 220 218 214 206 197 202 209 212 211 210 206 194 191 185 161 159 170 187 192 196 196 198 174 174 184 202 208 211 208 208 209 207 209 208 203 204 202 197 208 204 206 207 207 207 205 208 208 203 208 214 217 220 219 217 214
310 313 311 306 300 291 283 284 283 282 278 273 266 263 261 261 264 263 259 258 258 249 241 237 236 235 234 231 228 228 224 218 216 216 210 202 201 200 207 211 208 208 207 200 203 179 154 167 180 185 193 191 194 199 190 166 182 201 209 211 212 211 210 207 209 210 208 204 203 199 205 209 203 205 206 206 208 206 208 208 205 208 213 216 218 220 218
315 316 311 305 296 290 288 286 285 282 277 273 269 266 263 259 258 259 263 264 263 255 248 239 235 237 238 231 232 230 227 220 214 210 201 201 200 201 204 218 203 204 192 183 180 161 164 177 184 192 192 194 190 188 174 157 187 196 207 208 211 209 211 207 206 210 210 209 205 207 205 208 208 206 204 207 209 209 209 209 209 208 211 214 218 219 220
315 312 308 302 295 290 287 285 285 285 287 282 278 274 271 266 261 261 261 259 256 255 248 246 234 225 233 235 230 227 225 221 215 207 204 210 212 217 220 223 211 201 176 184 188 187 187 189 192 200 193 190 192 174 170 174 188 192 203 205 208 209 211 210 208 208 208 210 209 211 208 208 209 210 207 208 210 210 211 210 210 210 210 212 214 217 220
305 301 299 297 292 290 289 285 283 282 282 283 283 281 278 272 265 263 262 261 258 252 247 243 238 232 224 220 222 224 222 215 211 206 206 210 212 219 224 232 237 183 166 186 191 198 194 193 197 193 191 196 191 169 177 189 190 193 198 201 204 206 210 210 210 209 208 208 210 210 209 206 209 213 212 210 212 213 211 211 213 212 212 214 215 215 217
301 301 299 295 292 287 281 277 277 279 284 289 287 280 278 277 271 265 263 261 258 255 248 243 239 233 227 216 215 218 221 217 213 203 205 208 212 215 206 214 222 221 170 185 189 197 201 200 193 186 187 196 181 169 184 188 192 194 197 198 202 204 206 207 209 208 208 208 208 210 208 207 209 212 214 213 212 215 212 211 212 214 215 215 215 216 217
301 302 303 296 286 278 275 277 279 280 278 280 280 277 268 265 263 264 260 259 259 253 247 240 237 232 229 224 224 226 229 229 225 219 219 222 218 223 196 197 206 212 179 179 195 197 202 196 188 185 187 189 175 178 196 196 196 196 197 199 200 202 203 207 208 211 208 207 205 207 208 209 209 211 212 215 209 212 215 208 212 214 217 216 217 218 219
302 303 304 302 293 283 279 276 275 274 272 270 268 270 267 266 264 269 274 270 264 260 255 248 242 238 231 225 221 214 217 220 225 223 227 229 233 242 195 170 200 187 171 194 208 204 205 190 192 191 188 181 174 190 200 203 202 204 202 204 204 205 207 209 208 210 207 207 205 205 206 209 210 209 208 212 211 207 212 206 211 215 217 218 220 218 220
299 300 304 305 300 291 282 275 270 266 264 264 267 274 275 274 268 268 274 277 267 257 250 246 243 237 232 224 222 222 225 222 233 225 215 221 225 221 221 212 203 179 184 198 207 217 212 197 188 190 184 170 177 199 202 207 208 209 207 206 206 207 207 209 208 208 208 206 201 204 206 206 208 212 209 205 208 206 207 206 207 212 219 218 218 218 217
298 300 303 300 294 283 274 272 273 270 267 272 274 277 280 281 278 274 272 271 266 260 253 246 238 234 225 223 222 219 215 219 232 249 229 207 213 221 222 213 189 167 181 203 207 216 205 205 186 176 166 168 189 200 207 209 210 210 211 209 209 209 210 210 210 209 208 205 202 200 201 202 204 205 206 204 206 205 203 206 208 210 213 216 218 219 220
301 301 298 298 297 294 298 296 290 289 294 296 293 294 300 297 283 277 277 280 283 284 280 268 246 225 217 210 207 215 214 215 221 233 246 237 225 226 223 226 204 171 185 204 205 210 193 189 174 152 163 185 198 202 208 209 210 209 212 211 212 213 210 209 208 204 207 204 201 196 199 202 203 202 203 205 202 204 202 203 207 203 195 205 216 219 220
300 294 290 291 290 289 287 283 285 289 292 294 296 297 294 285 286 286 283 279 283 280 279 275 259 240 226 214 211 210 211 213 217 222 226 230 229 227 226 227 208 181 190 203 211 215 205 184 184 172 182 195 202 204 207 208 211 209 209 211 207 211 209 202 208 207 206 207 203 199 198 200 198 197 200 205 200 200 201 199 200 201 199 209 212 218 217
286 281 281 279 282 285 284 282 281 282 281 280 288 299 305 308 302 295 286 270 264 273 276 280 275 256 234 225 217 214 205 207 212 203 216 227 226 228 209 203 226 192 183 204 214 215 221 199 164 170 181 191 203 204 206 206 212 215 212 211 213 212 212 210 205 207 207 204 206 204 198 198 195 196 198 202 199 197 198 198 199 203 202 205 208 208 209